Time,TemperatureF,DewpointF,PressureIn,WindDirection,WindDirectionDegrees,WindSpeedMPH,WindSpeedGustMPH,Humidity,HourlyPrecipIn,Conditions,Clouds,dailyrainin,SoftwareType,DateUTC
2013-09-22 13:05:00,89.4,69.5,29.80,SSW,200,0.0,0.0,52,0.00,,,0.94,VWS V14.01,2013-09-22 17:05:00,
2013-09-22 13:11:00,89.4,79.2,29.77,South,172,0.0,3.6,72,0.00,,,0.94,VWS V14.01,2013-09-22 17:11:00,
2013-09-22 13:16:00,89.2,79.0,29.77,SW,217,4.5,4.5,72,0.00,,,0.94,VWS V14.01,2013-09-22 17:16:00,
2013-09-22 13:21:00,89.4,79.2,29.77,SSW,211,0.0,4.9,72,0.00,,,0.94,VWS V14.01,2013-09-22 17:21:00,
2013-09-22 13:26:00,89.1,78.9,29.77,SSW,197,5.4,5.4,72,0.00,,,0.94,VWS V14.01,2013-09-22 17:26:00,
2013-09-22 13:31:00,89.2,79.0,29.77,SSE,156,2.7,2.7,72,0.00,,,0.94,VWS V14.01,2013-09-22 17:31:00,
2013-09-22 13:36:00,89.6,77.6,29.77,SE,141,2.2,3.6,68,0.00,,,0.94,VWS V14.01,2013-09-22 17:36:00,
2013-09-22 13:41:00,89.8,77.8,29.77,SSE,148,4.0,4.5,68,0.00,,,0.94,VWS V14.01,2013-09-22 17:41:00,
2013-09-22 13:46:00,90.0,78.0,29.77,SE,132,5.8,6.3,68,0.00,,,0.94,VWS V14.01,2013-09-22 17:46:00,
2013-09-22 13:51:00,90.0,74.2,29.77,WSW,257,0.0,4.0,60,0.00,,,0.94,VWS V14.01,2013-09-22 17:51:00,
2013-09-22 13:56:00,89.4,79.2,29.77,SW,217,5.8,8.7,72,0.00,,,0.94,VWS V14.01,2013-09-22 17:56:00,
2013-09-22 14:01:00,88.7,78.5,29.77,WSW,245,0.0,7.6,72,0.00,,,0.94,VWS V14.01,2013-09-22 18:01:00,
2013-09-22 14:06:00,87.8,77.7,29.77,WSW,238,4.9,11.0,72,0.00,,,0.94,VWS V14.01,2013-09-22 18:06:00,
2013-09-22 14:11:00,87.1,77.0,29.77,SW,230,2.2,5.4,72,0.00,,,0.94,VWS V14.01,2013-09-22 18:11:00,
2013-09-22 14:16:00,86.7,78.2,29.77,SW,236,2.7,5.4,76,0.00,,,0.94,VWS V14.01,2013-09-22 18:16:00,
2013-09-22 14:21:00,86.4,77.9,29.77,SSW,200,6.7,6.7,76,0.00,,,0.94,VWS V14.01,2013-09-22 18:21:00,
2013-09-22 14:26:00,86.2,77.7,29.77,WSW,239,0.0,4.0,76,0.00,,,0.94,VWS V14.01,2013-09-22 18:26:00,
2013-09-22 14:31:00,86.2,77.7,29.77,WSW,243,2.2,8.7,76,0.00,,,0.94,VWS V14.01,2013-09-22 18:31:00,
2013-09-22 14:36:00,86.2,79.3,29.77,WSW,243,3.1,5.4,80,0.00,,,0.94,VWS V14.01,2013-09-22 18:36:00,
2013-09-22 14:41:00,85.5,80.1,29.77,NW,317,3.6,8.1,84,0.00,,,0.94,VWS V14.01,2013-09-22 18:41:00,
2013-09-22 14:46:00,85.1,82.5,29.77,WSW,256,9.6,9.6,92,0.00,,,0.94,VWS V14.01,2013-09-22 18:46:00,